When you browse on this site, cookies collect data to enhance your experience and personalize the content and advertising you see.
Visit our Privacy Policy to learn more. By continuing to use the site, you agree to this use of cookies and data.
  • In United Kingdom
  • List of Countries
  • For 7 days
  • Water Temperature
  • Satellite Maps
  • Weather Map
  • Weather Widgets
  • user-avatar
    Login

    Hourly Weather Les Herbiers

    Today, 15 December, Saturday

    Time Temperature Precipitation Wind Pressure Humidity
    00:00 -2°C° 0 mm 4 mps 753 mmHg 74%
    01:00 -2°C° 0 mm 4 mps 752 mmHg 72%
    02:00 -2°C° 0 mm 5 mps 752 mmHg 71%
    03:00 -1°C° 0 mm 5 mps 751 mmHg 70%
    04:00 -1°C° 1 mm 5 mps 751 mmHg 75%
    05:00 -2°C° 1 mm 6 mps 751 mmHg 80%
    06:00 -1°C° 1 mm 6 mps 750 mmHg 85%
    07:00 +1°C° 0.7 mm 6 mps 750 mmHg 88%
    08:00 +2°C° 0.7 mm 7 mps 749 mmHg 90%
    09:00 +3°C° 0.7 mm 7 mps 749 mmHg 93%
    10:00 +4°C° 0.8 mm 7 mps 749 mmHg 93%
    11:00 +5°C° 0.8 mm 7 mps 748 mmHg 94%
    12:00 +6°C° 0.8 mm 7 mps 748 mmHg 95%
    13:00 +8°C° 0.4 mm 7 mps 747 mmHg 95%
    14:00 +9°C° 0.4 mm 7 mps 746 mmHg 95%
    15:00 +10°C° 0.4 mm 7 mps 746 mmHg 95%
    16:00 +10°C° 1.6 mm 7 mps 746 mmHg 95%
    17:00 +10°C° 1.6 mm 8 mps 745 mmHg 94%
    18:00 +10°C° 1.6 mm 8 mps 745 mmHg 93%
    19:00 +10°C° 0.2 mm 7 mps 745 mmHg 92%
    20:00 +10°C° 0.2 mm 6 mps 746 mmHg 91%
    21:00 +9°C° 0.2 mm 5 mps 746 mmHg 90%
    22:00 +8°C° 0 mm 4 mps 746 mmHg 90%
    23:00 +7°C° 0 mm 4 mps 746 mmHg 90%

    Tomorrow, 16 December, Sunday

    Time Temperature Precipitation Wind Pressure Humidity
    00:00 +8°C° 0 mm 3 mps 747 mmHg 90%
    01:00 +8°C° 0 mm 3 mps 747 mmHg 90%
    02:00 +8°C° 0 mm 3 mps 747 mmHg 90%
    03:00 +8°C° 0 mm 3 mps 747 mmHg 90%
    04:00 +7°C° 0 mm 3 mps 747 mmHg 90%
    05:00 +7°C° 0 mm 3 mps 747 mmHg 90%
    06:00 +7°C° 0 mm 3 mps 747 mmHg 90%
    07:00 +7°C° 0 mm 2 mps 747 mmHg 90%
    08:00 +7°C° 0 mm 2 mps 747 mmHg 90%
    09:00 +7°C° 0 mm 2 mps 747 mmHg 89%
    10:00 +9°C° 0.1 mm 3 mps 747 mmHg 85%
    11:00 +10°C° 0.1 mm 3 mps 747 mmHg 81%
    12:00 +11°C° 0.1 mm 4 mps 746 mmHg 76%
    13:00 +11°C° 0.2 mm 4 mps 746 mmHg 78%
    14:00 +9°C° 0.2 mm 5 mps 745 mmHg 79%
    15:00 +9°C° 0.2 mm 5 mps 745 mmHg 80%
    16:00 +9°C° 0.9 mm 6 mps 745 mmHg 84%
    17:00 +8°C° 0.9 mm 6 mps 745 mmHg 87%
    18:00 +8°C° 0.9 mm 7 mps 745 mmHg 90%
    19:00 +8°C° 0.5 mm 7 mps 746 mmHg 87%
    20:00 +6°C° 0.5 mm 7 mps 746 mmHg 84%
    21:00 +6°C° 0.5 mm 7 mps 747 mmHg 81%
    22:00 +7°C° 0 mm 6 mps 748 mmHg 81%
    23:00 +5°C° 0 mm 6 mps 749 mmHg 82%

    Day after tomorrow, 17 December, Monday

    Time Temperature Precipitation Wind Pressure Humidity
    00:00 +6°C° 0 mm 5 mps 749 mmHg 82%
    01:00 +6°C° 0 mm 5 mps 750 mmHg 83%
    02:00 +6°C° 0 mm 4 mps 751 mmHg 84%
    03:00 +5°C° 0 mm 4 mps 751 mmHg 86%
    04:00 +5°C° 0 mm 4 mps 752 mmHg 86%
    05:00 +5°C° 0 mm 3 mps 752 mmHg 87%
    06:00 +5°C° 0 mm 3 mps 753 mmHg 88%
    07:00 +5°C° 0 mm 3 mps 753 mmHg 88%
    08:00 +7°C° 0 mm 2 mps 754 mmHg 87%
    09:00 +7°C° 0 mm 2 mps 755 mmHg 87%
    10:00 +8°C° 0 mm 3 mps 755 mmHg 82%
    11:00 +10°C° 0 mm 3 mps 755 mmHg 78%
    12:00 +11°C° 0 mm 4 mps 755 mmHg 73%
    13:00 +11°C° 0 mm 3 mps 755 mmHg 75%
    14:00 +11°C° 0 mm 3 mps 755 mmHg 78%
    15:00 +10°C° 0 mm 2 mps 755 mmHg 80%
    16:00 +9°C° 0 mm 3 mps 755 mmHg 84%
    17:00 +9°C° 0 mm 3 mps 755 mmHg 87%
    18:00 +8°C° 0 mm 3 mps 755 mmHg 91%
    19:00 +7°C° 0 mm 4 mps 755 mmHg 91%
    20:00 +7°C° 0 mm 4 mps 755 mmHg 92%
    21:00 +7°C° 0 mm 4 mps 755 mmHg 92%
    22:00 +7°C° 0 mm 4 mps 755 mmHg 93%
    23:00 +6°C° 0 mm 4 mps 755 mmHg 93%

    18 December, Tuesday

    Time Temperature Precipitation Wind Pressure Humidity
    00:00 +6°C° 0 mm 5 mps 754 mmHg 94%
    01:00 +6°C° 0 mm 5 mps 753 mmHg 93%
    02:00 +5°C° 0 mm 6 mps 752 mmHg 92%
    03:00 +4°C° 0 mm 6 mps 752 mmHg 92%
    04:00 +4°C° 0 mm 7 mps 751 mmHg 90%
    05:00 +4°C° 0 mm 7 mps 750 mmHg 88%
    06:00 +4°C° 0 mm 8 mps 749 mmHg 86%
    07:00 +4°C° 0 mm 8 mps 749 mmHg 82%
    08:00 +5°C° 0 mm 8 mps 748 mmHg 78%
    09:00 +5°C° 0 mm 8 mps 748 mmHg 74%
    10:00 +6°C° 0 mm 8 mps 747 mmHg 71%
    11:00 +6°C° 0 mm 9 mps 746 mmHg 68%
    12:00 +7°C° 0 mm 9 mps 746 mmHg 66%
    13:00 +7°C° 0.1 mm 9 mps 745 mmHg 66%
    14:00 +7°C° 0.1 mm 9 mps 745 mmHg 66%
    15:00 +9°C° 0.1 mm 8 mps 744 mmHg 66%
    16:00 +9°C° 1 mm 8 mps 745 mmHg 73%
    17:00 +9°C° 1 mm 8 mps 745 mmHg 80%
    18:00 +9°C° 1 mm 8 mps 745 mmHg 87%
    19:00 +9°C° 0.6 mm 7 mps 746 mmHg 86%
    20:00 +8°C° 0.6 mm 6 mps 746 mmHg 85%
    21:00 +8°C° 0.6 mm 5 mps 747 mmHg 85%
    22:00 +8°C° 0 mm 5 mps 747 mmHg 85%
    23:00 +7°C° 0 mm 5 mps 747 mmHg 86%

    19 December, Wednesday

    Time Temperature Precipitation Wind Pressure Humidity
    00:00 +7°C° 0 mm 4 mps 748 mmHg 87%
    01:00 +7°C° 0.1 mm 4 mps 748 mmHg 87%
    02:00 +7°C° 0.1 mm 4 mps 748 mmHg 88%
    03:00 +7°C° 0.1 mm 4 mps 748 mmHg 88%
    04:00 +7°C° 0.5 mm 4 mps 748 mmHg 88%
    05:00 +7°C° 0.5 mm 4 mps 748 mmHg 88%
    06:00 +6°C° 0.5 mm 4 mps 748 mmHg 88%
    07:00 +7°C° 0.2 mm 4 mps 749 mmHg 88%
    08:00 +7°C° 0.2 mm 4 mps 749 mmHg 87%
    09:00 +8°C° 0.2 mm 3 mps 749 mmHg 87%
    10:00 +7°C° 0.6 mm 4 mps 749 mmHg 83%
    11:00 +8°C° 0.6 mm 5 mps 749 mmHg 80%
    12:00 +9°C° 0.6 mm 6 mps 749 mmHg 77%
    13:00 +8°C° 0.7 mm 5 mps 749 mmHg 77%
    14:00 +8°C° 0.7 mm 5 mps 749 mmHg 78%
    15:00 +8°C° 0.7 mm 5 mps 749 mmHg 79%
    16:00 +7°C° 0.1 mm 4 mps 750 mmHg 81%
    17:00 +7°C° 0.1 mm 3 mps 750 mmHg 84%
    18:00 +5°C° 0.1 mm 3 mps 750 mmHg 87%
    19:00 +5°C° 0 mm 3 mps 751 mmHg 87%
    20:00 +5°C° 0 mm 3 mps 751 mmHg 87%
    21:00 +5°C° 0 mm 3 mps 752 mmHg 87%
    22:00 +5°C° 0.1 mm 3 mps 752 mmHg 87%
    23:00 +5°C° 0.1 mm 3 mps 752 mmHg 87%

    20 December, Thursday

    Time Temperature Precipitation Wind Pressure Humidity
    00:00 +5°C° 0.1 mm 3 mps 752 mmHg 87%
    01:00 +5°C° 0.1 mm 3 mps 752 mmHg 87%
    02:00 +5°C° 0.1 mm 3 mps 752 mmHg 87%
    03:00 +5°C° 0.1 mm 3 mps 752 mmHg 87%
    04:00 +5°C° 0.1 mm 3 mps 752 mmHg 87%
    05:00 +6°C° 0.1 mm 4 mps 752 mmHg 86%
    06:00 +6°C° 0.1 mm 4 mps 752 mmHg 86%
    07:00 +6°C° 0.2 mm 4 mps 752 mmHg 85%
    08:00 +7°C° 0.2 mm 4 mps 753 mmHg 85%
    09:00 +7°C° 0.2 mm 4 mps 753 mmHg 85%
    10:00 +8°C° 0.2 mm 5 mps 753 mmHg 83%
    11:00 +8°C° 0.2 mm 5 mps 753 mmHg 80%
    12:00 +9°C° 0.2 mm 6 mps 753 mmHg 78%
    13:00 +9°C° 0.2 mm 5 mps 753 mmHg 79%
    14:00 +9°C° 0.2 mm 5 mps 753 mmHg 81%
    15:00 +10°C° 0.2 mm 4 mps 753 mmHg 83%
    16:00 +8°C° 0 mm 4 mps 753 mmHg 85%
    17:00 +8°C° 0 mm 4 mps 753 mmHg 87%
    18:00 +8°C° 0 mm 3 mps 754 mmHg 89%
    19:00 +7°C° 0.1 mm 4 mps 754 mmHg 88%
    20:00 +8°C° 0.1 mm 4 mps 754 mmHg 88%
    21:00 +8°C° 0.1 mm 4 mps 754 mmHg 88%
    22:00 +8°C° 0.1 mm 4 mps 754 mmHg 89%
    23:00 +8°C° 0.1 mm 4 mps 754 mmHg 91%
    Show more